Location: Beccas
(43.4309°N, 0.1528°E)
Time: 18:09:37
(UTC+00:00)

NOAA 16 DEB - Visible Passes

Search period start: 11 August 2022 00:00
Search period end: 21 August 2022 00:00
Orbit: 749 x 821 km, 98.7° (Epoch: 11 August)

Date Brightness Start Highest point End Pass type
(mag) Time Alt. Az. Time Alt. Az. Time Alt. Az.
11 Aug ? 00:59:55 19° WNW 00:59:55 19° WNW 01:02:18 10° NW visible
11 Aug ? 22:47:56 28° ENE 22:47:56 28° ENE 22:52:11 10° N visible
12 Aug ? 00:28:33 33° WNW 00:28:33 33° WNW 00:31:55 10° NNW visible
12 Aug ? 22:16:33 16° ENE 22:17:04 16° ENE 22:20:07 10° NNE visible
12 Aug ? 23:57:10 50° NNW 23:57:10 50° NNW 00:01:04 10° NNW visible
13 Aug ? 23:25:47 48° NNE 23:25:47 48° NNE 23:29:52 10° N visible
14 Aug ? 01:06:24 16° WNW 01:06:24 16° WNW 01:08:10 10° NW visible
14 Aug ? 22:54:24 30° NE 22:54:24 30° NE 22:58:22 10° N visible
15 Aug ? 00:35:01 27° NW 00:35:01 27° NW 00:37:54 10° NNW visible
15 Aug ? 22:23:00 18° ENE 22:23:04 18° ENE 22:26:25 10° NNE visible
16 Aug ? 00:03:37 42° NNW 00:03:37 42° NNW 00:07:05 10° NNW visible
16 Aug ? 23:32:12 45° NNE 23:32:12 45° NNE 23:35:56 10° N visible
17 Aug ? 01:12:49 13° WNW 01:12:49 13° WNW 01:13:55 10° NW visible
17 Aug ? 23:00:47 32° NE 23:00:47 32° NE 23:04:28 10° N visible
18 Aug ? 00:41:24 23° NW 00:41:24 23° NW 00:43:47 10° NNW visible
18 Aug ? 22:29:22 19° NE 22:29:22 19° NE 22:32:34 10° NNE visible
19 Aug ? 00:09:58 35° NW 00:09:58 35° NW 00:13:01 10° NNW visible
19 Aug ? 21:57:56 10° ENE 21:58:17 10° NE 21:59:15 10° NE visible
19 Aug ? 23:38:32 41° N 23:38:32 41° N 23:41:53 10° N visible
20 Aug ? 01:19:09 11° WNW 01:19:09 11° WNW 01:19:30 10° NW visible
20 Aug ? 23:07:06 32° NE 23:07:06 32° NE 23:10:27 10° N visible
